Regional Weather Roundup
Issued by NWS Green Bay, WI

Home | Current Version | Previous Version | Graphics & Text | Print | Product List | Glossary Off
Versions: 1 2 3 4 5 6 7 8 9 10 11 12 13 14 15 16 17 18 19 20 21 22 23 24 25 26 27 28 29 30 31 32 33 34 35 36 37 38 39 40 41 42 43 44 45 46 47 48 49 50

000
ASUS43 KGRB 281800
RWRGRB

NORTH-CENTRAL AND NORTHEAST WISCONSIN REGIONAL WEATHER ROUNDUP
NATIONAL WEATHER SERVICE GREEN BAY WI
100 PM CDT SAT MAY 28 2016

WIZ005-009-010>012-018-019-281900-
NORTH CENTRAL WISCONSIN

CITY           SKY/WX    TMP DP  RH WIND       PRES   REMARKS
IRONWOOD       CLOUDY    66  66 100 N3        29.74F
MANITOWISH WTR NOT AVBL
ARBOR VITAE    NOT AVBL
EAGLE RIVER    NOT AVBL
LAND O LAKES   NOT AVBL
RHINELANDER    LGT RAIN  68  65  90 S6        29.78F FOG
PHILLIPS       NOT AVBL
ANTIGO         NOT AVBL
TOMAHAWK       NOT AVBL
MERRILL        CLOUDY    70  68  94 S9        29.77S
$$

WIZ013-073-281900-
NORTHEAST WISCONSIN

CITY           SKY/WX    TMP DP  RH WIND       PRES   REMARKS
IRON MOUNTAIN  CLOUDY    71  66  84 S9        29.78F
MARINETTE      CLOUDY    70  65  84 S10       29.82F
$$

WIZ017-030-035>037-045-281900-
CENTRAL WISCONSIN

CITY           SKY/WX    TMP DP  RH WIND       PRES   REMARKS
MEDFORD        NOT AVBL
WAUSAU         CLOUDY    75  65  70 S14G26    29.76R
MOSINEE        CLOUDY    72  66  83 S15G23    29.79R
MARSHFIELD     PTSUNNY   74  66  76 SW14      29.77R
WISC RAPIDS    PTSUNNY   77  63  61 SW16G25   29.80S
STEVENS POINT  NOT AVBL
WAUPACA        NOT AVBL
SHAWANO        NOT AVBL
CLINTONVILLE   NOT AVBL
WAUTOMA        CLOUDY    75  64  68 SW18G26   29.82S
$$

WIZ038-039-048-051-281900-
FOX VALLEY

CITY           SKY/WX    TMP DP  RH WIND       PRES   REMARKS
NWS GREEN BAY  PTSUNNY   76  65  68 S22G31    29.81F
APPLETON       PTSUNNY   75  63  64 SW17G24   29.81S
OSHKOSH        CLOUDY    76  66  71 SW13G23   29.82S
FOND DU LAC    CLOUDY    76  66  71 S24G30    29.84R
$$

WIZ022-050-052-281900-
EAST CENTRAL WISCONSIN

CITY           SKY/WX    TMP DP  RH WIND       PRES   REMARKS
EPHRAIM        NOT AVBL
STURGEON BAY   NOT AVBL
MANITOWOC      NOT AVBL
SHEBOYGAN      CLOUDY    75  66  73 S9        29.86R
$$

LMZ563-521-522-541>543-281900-
LAKESHORE

STATION/POSITION TIME  TEMP    WIND        PRES    VSBY  WAVE
                       AIR SEA DIR/SP/G                  HT/PER
                 (UTC) (F)     (DEG/KT/KT) (MB)    (MI)  (FT/S)
SHEBOYGAN LKSHOR 1700   58     170/ 24/ 26 1011.2S
KEWAUNEE LKSHORE 1700   54     180/ 12/ 14 1010.5R
ALGOMA MARINA    1717          200/  9/ 11   N/A
NORTHPORT PIER   1700   60     150/ 13/ 17 1010.8S
N MID LAKE BUOY  1650   54 46  190/ 16/ 17 1011.2R         2/ 5
SISTER BAY LKSHO 1720   68     160/ 14/ 17   N/A
CHAMBERS ISLAND  1700   70     150/  7/ 12 1010.2S
MENOMINEE LKSHOR 1700   62     150/  9/ 13 1008.7F
$$




USA.gov is the U.S. government's official web portal to all federal, state and local government web resources and services.